period_start,C,m1,H,J0,J1,J2,J3,J4,J5,JA,JB,JC,JD,JJ,JK,JN,#
2017-08-20 00:03:05,0.01,1.29,0.00,24.01,28.52,31.33,13.98,44.18,1016.87,2026.99,2985.31,2746.03,3114.01,600.31,594.50,53.70,0000 0000 0000 0000 000000
2017-08-20 00:08:06,0.00,1.29,0.00,24.02,28.52,31.33,13.98,44.08,1017.03,2026.99,2985.00,2746.00,3113.96,600.10,594.34,53.76,0000 0000 0000 0000 000000
2017-08-20 00:13:07,0.01,1.29,0.00,24.02,28.52,31.34,13.87,44.10,1017.07,2026.99,2984.79,2745.99,3113.64,599.88,594.15,53.81,0000 0000 0000 0000 000000
2017-08-20 00:18:09,0.03,1.29,0.00,24.03,28.52,31.33,13.89,44.13,1017.06,2026.99,2984.16,2745.79,3113.06,599.87,594.09,53.86,0000 0000 0000 0000 000000
2017-08-20 00:23:10,0.01,1.29,0.00,24.02,28.52,31.37,13.85,44.17,1017.06,2026.99,2984.00,2745.34,3113.00,599.85,594.12,53.91,0000 0000 0000 0000 000000
2017-08-20 00:28:11,0.00,1.29,0.00,24.03,28.52,31.36,13.86,44.08,1017.09,2026.99,2983.94,2745.05,3112.98,600.05,594.30,53.96,0000 0000 0000 0000 000000
2017-08-20 00:33:13,0.02,1.29,0.00,24.03,28.52,31.38,13.87,44.06,1017.10,2026.99,2983.27,2745.00,3112.60,600.07,594.38,54.01,0000 0000 0000 0000 000000
2017-08-20 00:38:14,0.00,1.29,0.00,24.05,28.52,31.34,13.88,44.18,1017.10,2026.99,2983.00,2745.00,3112.07,599.95,594.20,54.06,0000 0000 0000 0000 000000
2017-08-20 00:43:15,0.00,1.29,0.00,24.05,28.52,31.34,13.87,44.20,1017.10,2026.99,2982.98,2744.99,3112.03,599.81,594.13,54.11,0000 0000 0000 0000 000000
2017-08-20 00:48:17,0.00,1.29,0.00,24.05,28.52,31.35,13.93,44.05,1017.10,2026.99,2982.84,2744.98,3112.00,600.16,594.40,54.16,0000 0000 0000 0000 000000
2017-08-20 00:53:18,0.01,1.29,0.00,24.06,28.52,31.38,13.92,44.19,1017.10,2026.99,2982.41,2744.89,3112.00,600.02,594.24,54.21,0000 0000 0000 0000 000000
2017-08-20 00:58:19,0.02,1.29,0.00,24.07,28.52,31.37,13.90,44.17,1017.10,2026.99,2982.25,2744.40,3111.98,599.95,594.15,54.26,0000 0000 0000 0000 000000
2017-08-20 01:03:20,0.00,1.29,0.00,24.09,28.53,31.38,13.91,44.01,1017.10,2026.99,2982.02,2744.07,3111.88,600.41,594.59,54.31,0000 0000 0000 0000 000000
2017-08-20 01:08:21,0.02,1.29,0.00,24.09,28.54,31.43,13.83,44.09,1017.10,2026.99,2981.88,2744.01,3111.24,599.82,593.94,54.36,0000 0000 0000 0000 000000
2017-08-20 01:13:23,0.01,1.29,0.00,24.09,28.54,31.40,13.84,44.13,1017.10,2026.99,2981.28,2744.00,3111.01,599.97,594.14,54.41,0000 0000 0000 0000 000000
2017-08-20 01:18:24,0.00,1.30,0.00,24.11,28.55,31.37,13.90,44.00,1017.10,2026.99,2981.00,2743.97,3110.97,600.31,594.25,54.46,0000 0000 0000 0000 000000
2017-08-20 01:23:25,0.01,1.30,0.00,24.12,28.55,31.45,13.89,44.00,1017.09,2027.00,2980.95,2743.79,3110.83,600.03,594.16,54.51,0000 0000 0000 0000 000000
2017-08-20 01:28:27,0.04,1.30,0.00,24.14,28.55,31.43,13.83,44.06,1017.08,2027.00,2980.35,2743.12,3110.14,599.97,594.00,54.56,0000 0000 0000 0000 000000
2017-08-20 01:33:28,0.00,1.30,0.00,24.15,28.55,31.42,13.86,44.00,1017.06,2026.99,2979.99,2743.00,3110.00,599.87,593.83,54.61,0000 0000 0000 0000 000000
2017-08-20 01:38:30,0.01,1.30,0.00,24.16,28.55,31.44,13.80,44.09,1017.03,2026.99,2979.50,2742.99,3109.91,599.50,593.49,54.66,0000 0000 0000 0000 000000
2017-08-20 01:43:31,0.02,1.30,0.00,24.17,28.57,31.46,13.92,44.08,1017.00,2026.99,2979.02,2742.92,3109.40,599.97,593.80,54.72,0000 0000 0000 0000 000000
2017-08-20 01:48:32,0.01,1.30,0.00,24.17,28.57,31.47,13.85,44.06,1016.92,2026.99,2979.00,2742.64,3109.07,599.82,593.76,54.77,0000 0000 0000 0000 000000
2017-08-20 01:53:33,0.02,1.30,0.00,24.19,28.57,31.48,13.86,44.01,1016.82,2026.99,2978.57,2742.09,3109.00,599.94,593.70,54.82,0000 0000 0000 0000 000000
2017-08-20 01:58:35,0.01,1.30,0.00,24.20,28.58,31.49,13.94,44.16,1016.99,2026.99,2978.16,2742.00,3108.97,599.93,593.69,54.87,0000 0000 0000 0000 000000
2017-08-20 02:03:36,0.01,1.30,0.00,24.22,28.60,31.51,13.88,44.09,1017.03,2026.98,2978.00,2742.00,3108.58,599.74,593.56,54.92,0000 0000 0000 0000 000000
2017-08-20 02:08:37,0.01,1.30,0.00,24.23,28.60,31.48,13.81,43.98,1017.01,2026.97,2977.77,2741.88,3108.03,599.81,593.65,54.97,0000 0000 0000 0000 000000
2017-08-20 02:13:39,0.03,1.31,0.00,24.25,28.60,31.49,13.90,44.02,1017.07,2026.98,2977.11,2741.27,3108.00,600.34,594.17,55.02,0000 0000 0000 0000 000000
2017-08-20 02:18:40,0.01,1.31,0.00,24.26,28.62,31.53,13.88,44.02,1017.08,2026.94,2976.99,2741.03,3107.91,599.76,593.58,55.07,0000 0000 0000 0000 000000
2017-08-20 02:23:41,-0.00,1.31,0.00,24.27,28.62,31.53,13.87,44.09,1017.10,2026.82,2976.88,2741.00,3107.39,599.80,593.56,55.12,0000 0000 0000 0000 000000
2017-08-20 02:28:43,0.02,1.31,0.00,24.28,28.62,31.53,13.91,44.02,1017.10,2026.79,2976.41,2740.99,3107.06,600.00,593.81,55.17,0000 0000 0000 0000 000000
2017-08-20 02:33:44,-0.00,1.31,0.00,24.30,28.64,31.55,13.86,44.20,1017.10,2026.65,2976.01,2740.80,3107.00,600.03,593.84,55.22,0000 0000 0000 0000 000000
2017-08-20 02:38:45,0.03,1.31,0.00,24.32,28.65,31.60,13.90,44.11,1017.10,2026.64,2975.77,2740.31,3106.94,600.19,593.82,55.27,0000 0000 0000 0000 000000
2017-08-20 02:43:47,-0.00,1.31,0.00,24.32,28.65,31.63,13.88,44.14,1017.10,2026.36,2975.10,2740.01,3106.32,599.94,593.69,55.32,0000 0000 0000 0000 000000
2017-08-20 02:48:48,-0.01,1.31,0.00,24.34,28.66,31.65,13.83,43.98,1017.09,2026.33,2975.02,2740.00,3106.09,599.65,593.34,55.37,0000 0000 0000 0000 000000
2017-08-20 02:53:49,-0.00,1.31,0.00,24.35,28.67,31.64,13.85,44.05,1017.06,2026.12,2974.87,2739.99,3106.00,599.77,593.33,55.42,0000 0000 0000 0000 000000
2017-08-20 02:58:50,0.00,1.31,0.00,24.36,28.67,31.61,13.86,44.16,1017.07,2026.03,2974.41,2739.88,3105.97,599.62,593.27,55.47,0000 0000 0000 0000 000000
2017-08-20 03:03:51,0.02,1.31,0.00,24.38,28.70,31.64,13.83,44.18,1017.09,2026.03,2974.01,2739.35,3105.57,599.96,593.51,55.52,0000 0000 0000 0000 000000
2017-08-20 03:08:53,0.01,1.31,0.00,24.40,28.70,31.65,13.87,44.23,1017.10,2026.03,2974.00,2739.07,3105.26,600.31,593.86,55.57,0000 0000 0000 0000 000000
2017-08-20 03:13:54,0.00,1.31,0.00,24.41,28.71,31.69,13.85,44.34,1017.09,2026.00,2974.00,2739.04,3105.11,599.91,593.30,55.62,0000 0000 0000 0000 000000
2017-08-20 03:18:55,0.00,1.31,0.00,24.43,28.72,31.70,13.90,44.40,1017.07,2026.00,2974.00,2739.01,3105.07,599.79,593.26,55.68,0000 0000 0000 0000 000000
2017-08-20 03:23:56,0.00,1.31,0.00,24.43,28.73,31.70,13.90,44.32,1017.04,2026.00,2973.99,2739.00,3105.02,600.19,593.63,55.73,0000 0000 0000 0000 000000
2017-08-20 03:28:58,0.00,1.31,0.00,24.45,28.75,31.72,13.87,44.33,1017.01,2026.00,2973.93,2739.00,3105.00,599.69,593.05,55.78,0000 0000 0000 0000 000000
2017-08-20 03:33:59,0.01,1.31,0.00,24.46,28.75,31.75,13.94,44.14,1016.85,2025.99,2973.50,2738.97,3104.94,600.35,593.57,55.83,0000 0000 0000 0000 000000
2017-08-20 03:39:01,0.01,1.31,0.00,24.48,28.77,31.73,13.87,44.08,1016.69,2025.99,2973.02,2738.86,3104.55,600.22,593.32,55.88,0000 0000 0000 0000 000000
2017-08-20 03:44:02,0.03,1.31,0.00,24.50,28.77,31.76,13.86,44.29,1016.64,2025.99,2972.94,2738.53,3104.13,600.11,593.16,55.93,0000 0000 0000 0000 000000
2017-08-20 03:49:03,0.01,1.31,0.00,24.51,28.79,31.78,13.85,44.22,1016.64,2025.97,2972.65,2738.07,3104.00,600.09,593.03,55.98,0000 0000 0000 0000 000000
2017-08-20 03:54:05,0.01,1.31,0.00,24.52,28.80,31.80,13.86,44.14,1016.64,2025.98,2972.17,2738.01,3104.00,600.12,593.18,56.03,0000 0000 0000 0000 000000
2017-08-20 03:59:06,-0.00,1.31,0.00,24.54,28.81,31.79,13.86,44.28,1016.65,2025.98,2972.04,2738.00,3103.98,600.13,593.14,56.08,0000 0000 0000 0000 000000
2017-08-20 04:04:07,-0.00,1.31,0.00,24.57,28.82,31.82,13.87,44.15,1016.68,2025.96,2972.02,2738.00,3103.94,599.89,592.84,56.13,0000 0000 0000 0000 000000
2017-08-20 04:09:09,-0.00,1.31,0.00,24.57,28.82,31.82,13.82,44.02,1016.65,2025.91,2972.09,2738.00,3103.95,599.91,592.81,56.18,0000 0000 0000 0000 000000
2017-08-20 04:14:10,0.00,1.31,0.00,24.60,28.85,31.84,13.86,44.09,1016.67,2025.89,2972.04,2738.00,3103.84,599.75,592.47,56.23,0000 0000 0000 0000 000000
2017-08-20 04:19:11,0.00,1.31,0.00,24.62,28.85,31.87,13.88,44.06,1016.67,2025.86,2971.99,2737.99,3103.46,600.15,592.97,56.28,0000 0000 0000 0000 000000
2017-08-20 04:24:13,-0.04,1.31,0.00,24.64,28.87,31.86,13.83,44.19,1016.68,2025.54,2971.99,2737.98,3103.19,600.03,592.87,56.33,0000 0000 0000 0000 000000
2017-08-20 04:29:14,-0.00,1.31,0.00,24.65,28.88,31.88,13.77,44.13,1016.72,2025.24,2971.93,2737.91,3103.04,600.00,592.94,56.38,0000 0000 0000 0000 000000
2017-08-20 04:34:15,0.01,1.31,0.00,24.67,28.90,31.89,13.85,44.24,1016.84,2025.12,2971.45,2737.35,3102.99,599.97,592.95,56.43,0000 0000 0000 0000 000000
2017-08-20 04:39:17,0.01,1.31,0.00,24.69,28.91,31.91,13.83,44.17,1016.98,2025.05,2971.05,2737.06,3102.97,599.83,592.61,56.48,0000 0000 0000 0000 000000
2017-08-20 04:44:18,0.00,1.31,0.00,24.71,28.92,31.94,13.82,44.10,1016.94,2025.01,2971.00,2737.00,3102.75,599.96,592.81,56.54,0000 0000 0000 0000 000000
2017-08-20 04:49:19,0.00,1.31,0.00,24.74,28.94,31.94,13.87,44.13,1016.82,2025.01,2971.00,2737.00,3102.39,599.78,592.38,56.59,0000 0000 0000 0000 000000
2017-08-20 04:54:20,0.00,1.31,0.00,24.75,28.95,31.97,13.88,44.17,1016.71,2025.00,2971.00,2737.00,3102.16,600.09,592.55,56.64,0000 0000 0000 0000 000000
2017-08-20 04:59:21,0.00,1.31,0.00,24.77,28.97,31.98,13.78,44.13,1016.70,2025.00,2970.98,2736.97,3102.01,599.84,592.39,56.69,0000 0000 0000 0000 000000
2017-08-20 05:04:23,0.00,1.31,0.00,24.79,28.99,32.01,13.85,44.40,1016.81,2025.00,2970.96,2736.97,3102.00,599.88,592.46,56.74,0000 0000 0000 0000 000000
2017-08-20 05:09:24,0.02,1.31,0.00,24.81,29.00,32.02,13.74,44.04,1016.84,2024.97,2970.50,2736.70,3102.00,599.55,592.16,56.79,0000 0000 0000 0000 000000
2017-08-20 05:14:26,0.00,1.32,0.00,24.82,29.02,32.04,13.84,44.11,1016.80,2024.97,2970.27,2736.21,3101.97,599.74,592.24,56.84,0000 0000 0000 0000 000000
2017-08-20 05:19:27,-0.00,1.32,0.00,24.85,29.03,32.07,13.77,43.98,1016.77,2024.82,2970.05,2736.06,3101.81,599.92,592.36,56.89,0000 0000 0000 0000 000000
2017-08-20 05:24:28,-0.03,1.31,0.00,24.86,29.05,32.09,13.91,44.18,1016.85,2024.45,2970.01,2736.00,3101.35,600.24,592.67,56.94,0000 0000 0000 0000 000000
2017-08-20 05:29:29,-0.01,1.31,0.00,24.87,29.07,32.07,13.84,44.13,1016.90,2024.29,2969.92,2736.00,3101.03,600.02,592.50,56.99,0000 0000 0000 0000 000000
2017-08-20 05:34:30,0.00,1.31,0.00,24.87,29.07,32.10,13.84,44.11,1017.01,2024.30,2969.85,2736.00,3101.01,599.97,592.48,57.04,0000 0000 0000 0000 000000
2017-08-20 05:39:32,-0.00,1.31,0.00,24.88,29.10,32.12,13.89,44.08,1017.06,2024.08,2969.43,2735.99,3101.00,599.85,592.45,57.09,0000 0000 0000 0000 000000
2017-08-20 05:44:33,0.03,1.31,0.00,24.89,29.11,32.12,13.80,44.05,1017.07,2024.03,2968.91,2735.78,3100.66,599.86,592.35,57.14,0000 0000 0000 0000 000000
2017-08-20 05:49:35,0.02,1.32,0.00,24.89,29.12,32.14,13.82,44.17,1017.10,2024.06,2968.53,2735.19,3100.09,600.04,592.57,57.19,0000 0000 0000 0000 000000
2017-08-20 05:54:36,0.00,1.32,0.00,24.89,29.13,32.16,13.85,44.02,1017.10,2024.03,2968.33,2735.03,3100.01,600.08,592.61,57.24,0000 0000 0000 0000 000000
2017-08-20 05:59:37,-0.00,1.32,0.00,24.90,29.15,32.16,13.88,44.14,1017.10,2024.01,2968.49,2735.02,3100.00,600.36,592.81,57.29,0000 0000 0000 0000 000000
2017-08-20 06:04:38,-0.00,1.32,0.00,24.91,29.15,32.17,13.83,44.09,1017.10,2024.00,2968.49,2735.00,3100.00,599.61,592.13,57.34,0000 0000 0000 0000 000000
2017-08-20 06:09:40,0.01,1.32,0.00,24.92,29.17,32.19,13.82,44.02,1017.10,2024.00,2968.07,2734.99,3099.96,600.04,592.42,57.39,0000 0000 0000 0000 000000
2017-08-20 06:14:41,0.00,1.32,0.00,24.93,29.18,32.21,13.87,44.11,1017.10,2024.00,2968.00,2734.98,3099.90,600.04,592.43,57.44,0000 0000 0000 0000 000000
2017-08-20 06:19:42,0.03,1.32,0.00,24.95,29.20,32.21,13.77,43.97,1017.10,2024.00,2967.46,2734.88,3099.29,599.88,592.28,57.49,0000 0000 0000 0000 000000
2017-08-20 06:24:44,0.00,1.32,0.00,24.95,29.20,32.21,13.88,43.96,1017.12,2024.00,2967.32,2734.71,3099.03,600.26,592.82,57.55,0000 0000 0000 0000 000000
2017-08-20 06:29:45,0.01,1.32,0.00,24.96,29.22,32.24,13.89,43.90,1017.12,2023.99,2967.26,2734.28,3099.02,600.24,592.56,57.60,0000 0000 0000 0000 000000
2017-08-20 06:34:46,0.00,1.32,0.00,24.97,29.22,32.25,13.86,43.98,1017.11,2023.98,2967.50,2734.19,3099.02,600.00,592.38,57.65,0000 0000 0000 0000 000000
2017-08-20 06:39:47,0.01,1.32,0.00,24.97,29.23,32.24,13.88,43.92,1017.12,2023.98,2966.97,2734.02,3098.99,599.88,592.21,57.70,0000 0000 0000 0000 000000
2017-08-20 06:44:49,-0.00,1.32,0.00,24.98,29.25,32.25,13.83,43.86,1017.12,2023.99,2966.97,2734.00,3098.98,599.88,592.22,57.75,0000 0000 0000 0000 000000
2017-08-20 06:49:50,0.00,1.32,0.00,25.00,29.25,32.26,13.79,43.85,1017.12,2023.99,2966.86,2734.00,3098.92,599.92,592.37,57.80,0000 0000 0000 0000 000000
2017-08-20 06:54:52,-0.00,1.32,0.00,25.00,29.27,32.30,13.82,44.00,1017.12,2023.90,2966.72,2734.00,3098.74,600.28,592.65,57.85,0000 0000 0000 0000 000000
2017-08-20 06:59:53,-0.01,1.32,0.00,25.01,29.27,32.30,13.87,44.07,1017.12,2023.79,2966.96,2734.00,3098.83,600.06,592.33,57.90,0000 0000 0000 0000 000000
2017-08-20 07:04:54,-0.01,1.32,0.00,25.02,29.30,32.31,13.80,44.00,1017.13,2023.50,2966.69,2733.98,3098.28,600.27,592.57,57.95,0000 0000 0000 0000 000000
2017-08-20 07:09:56,-0.02,1.32,0.00,25.02,29.30,32.31,13.88,43.83,1017.12,2023.38,2966.29,2733.95,3098.05,599.92,592.16,58.00,0000 0000 0000 0000 000000
2017-08-20 07:14:57,0.04,1.32,0.00,25.04,29.31,32.33,13.87,43.94,1017.12,2023.48,2965.99,2733.81,3098.00,600.37,592.54,58.05,0000 0000 0000 0000 000000
2017-08-20 07:19:58,0.01,1.32,0.00,25.05,29.32,32.37,13.90,44.18,1017.13,2023.47,2965.68,2733.23,3097.99,600.48,592.62,58.10,0000 0000 0000 0000 000000
2017-08-20 07:25:00,-0.04,1.32,0.00,25.06,29.34,32.32,13.88,44.09,1017.13,2023.09,2965.97,2733.09,3097.99,600.06,592.37,58.15,0000 0000 0000 0000 000000
2017-08-20 07:30:01,0.00,1.32,0.00,25.07,29.35,32.34,13.78,43.92,1017.14,2023.04,2965.90,2733.03,3097.95,599.74,591.89,58.20,0000 0000 0000 0000 000000
2017-08-20 07:35:02,-0.00,1.32,0.00,25.07,29.35,32.37,13.82,44.01,1017.15,2023.03,2965.97,2733.02,3097.92,600.00,592.23,58.25,0000 0000 0000 0000 000000
2017-08-20 07:40:04,0.01,1.32,0.00,25.09,29.37,32.42,13.76,43.96,1017.22,2023.01,2965.67,2733.01,3097.62,599.75,592.05,58.30,0000 0000 0000 0000 000000
2017-08-20 07:45:05,0.01,1.32,0.00,25.11,29.38,32.40,13.80,43.88,1017.17,2023.00,2965.08,2733.00,3097.08,599.69,591.95,58.35,0000 0000 0000 0000 000000
2017-08-20 07:50:06,0.00,1.32,0.00,25.12,29.40,32.39,13.86,43.89,1017.25,2023.00,2965.00,2732.97,3097.00,600.09,592.32,58.40,0000 0000 0000 0000 000000
2017-08-20 07:55:08,0.00,1.32,0.00,25.14,29.41,32.43,13.79,44.01,1017.29,2023.00,2964.99,2732.95,3097.00,599.97,592.15,58.45,0000 0000 0000 0000 000000
2017-08-20 08:00:09,0.01,1.32,0.00,25.15,29.42,32.43,13.86,44.13,1017.37,2023.00,2964.78,2732.83,3096.98,599.99,592.07,58.51,0000 0000 0000 0000 000000
2017-08-20 08:05:10,-0.00,1.32,0.00,25.15,29.44,32.45,13.85,44.18,1017.38,2023.00,2964.86,2732.66,3096.99,600.05,592.17,58.56,0000 0000 0000 0000 000000
2017-08-20 08:10:12,0.02,1.32,0.00,25.16,29.45,32.45,13.79,44.06,1017.34,2023.00,2964.66,2732.19,3096.90,599.75,591.90,58.61,0000 0000 0000 0000 000000
2017-08-20 08:15:13,0.02,1.32,0.00,25.16,29.46,32.43,13.79,44.06,1017.46,2023.00,2964.21,2732.04,3096.42,599.93,592.18,58.66,0000 0000 0000 0000 000000
2017-08-20 08:20:15,-0.00,1.32,0.00,25.17,29.47,32.45,13.76,43.98,1017.48,2022.99,2964.19,2732.00,3096.14,599.72,591.89,58.71,0000 0000 0000 0000 000000
2017-08-20 08:25:16,0.00,1.32,0.00,25.17,29.48,32.49,13.75,43.87,1017.45,2022.96,2964.17,2732.00,3096.02,599.53,591.80,58.76,0000 0000 0000 0000 000000
2017-08-20 08:30:17,0.00,1.32,0.00,25.18,29.50,32.49,13.82,44.00,1017.43,2022.90,2963.86,2731.96,3096.00,600.08,592.19,58.81,0000 0000 0000 0000 000000
2017-08-20 08:35:18,0.03,1.32,0.00,25.19,29.50,32.50,13.82,44.06,1017.49,2022.78,2963.14,2731.42,3095.71,600.01,592.16,58.86,0000 0000 0000 0000 000000
2017-08-20 08:40:20,0.01,1.33,0.00,25.20,29.52,32.53,13.81,43.97,1017.52,2022.56,2962.99,2731.03,3095.09,599.77,592.03,58.91,0000 0000 0000 0000 000000
2017-08-20 08:45:21,-0.04,1.32,0.00,25.20,29.52,32.53,13.85,43.97,1017.45,2022.29,2962.90,2731.01,3095.00,599.75,591.81,58.96,0000 0000 0000 0000 000000
2017-08-20 08:50:23,-0.01,1.32,0.00,25.21,29.54,32.54,13.84,43.98,1017.56,2022.10,2962.94,2731.00,3095.01,600.30,592.46,59.01,0000 0000 0000 0000 000000
2017-08-20 08:55:24,-0.00,1.32,0.00,25.20,29.55,32.53,13.84,44.13,1017.59,2022.01,2963.01,2731.00,3095.01,600.28,592.50,59.06,0000 0000 0000 0000 000000
2017-08-20 09:00:26,0.00,1.32,0.00,25.20,29.55,32.56,13.81,44.17,1017.59,2022.00,2963.03,2730.99,3095.01,599.92,592.22,59.11,0000 0000 0000 0000 000000
2017-08-20 09:05:27,0.00,1.32,0.00,25.18,29.56,32.54,13.88,44.15,1017.59,2022.00,2963.11,2730.99,3095.00,600.25,592.61,59.16,0000 0000 0000 0000 000000
2017-08-20 09:10:28,0.00,1.32,0.00,25.20,29.57,32.54,13.80,43.93,1017.59,2022.00,2963.00,2730.99,3095.00,599.74,592.03,59.21,0000 0000 0000 0000 000000
2017-08-20 09:15:29,0.00,1.32,0.00,25.20,29.57,32.52,13.93,44.03,1017.59,2022.00,2962.95,2730.98,3094.99,600.85,593.04,59.26,0000 0000 0000 0000 000000
2017-08-20 09:20:31,0.00,1.32,0.00,25.20,29.58,32.52,13.90,44.09,1017.59,2021.99,2962.83,2730.93,3094.93,600.42,592.69,59.31,0000 0000 0000 0000 000000
2017-08-20 09:25:32,0.01,1.32,0.00,25.20,29.58,32.51,13.87,44.04,1017.59,2021.98,2962.57,2730.71,3094.65,599.94,592.21,59.36,0000 0000 0000 0000 000000
2017-08-20 09:30:33,0.03,1.32,0.00,25.20,29.60,32.53,13.85,44.04,1017.59,2021.98,2962.16,2730.49,3094.37,600.01,592.30,59.41,0000 0000 0000 0000 000000
2017-08-20 09:35:34,0.00,1.32,0.00,25.22,29.60,32.53,13.86,43.92,1017.59,2021.97,2962.18,2730.31,3094.18,600.12,592.23,59.47,0000 0000 0000 0000 000000
2017-08-20 09:40:36,-0.03,1.32,0.00,25.23,29.60,32.58,13.87,43.97,1017.59,2021.98,2962.56,2730.51,3094.49,600.46,592.60,59.52,0000 0000 0000 0000 000000
2017-08-20 09:45:37,0.35,1.33,0.00,25.25,29.60,32.58,13.85,44.06,1017.59,2021.94,2956.78,2727.63,3091.38,600.31,592.43,59.57,0000 0000 0000 0000 000000
2017-08-20 09:50:39,0.02,1.34,0.00,25.26,29.61,32.59,13.90,43.98,1017.59,2021.95,2954.02,2726.15,3089.99,600.17,592.28,59.62,0000 0000 0000 0000 000000
2017-08-20 09:55:40,0.00,1.34,0.00,25.27,29.62,32.58,13.84,43.92,1017.59,2021.91,2954.01,2726.03,3089.97,600.01,592.10,59.67,0000 0000 0000 0000 000000
2017-08-20 10:00:41,-0.01,0.80,0.00,25.29,29.63,32.59,11.96,38.38,1017.59,2022.39,3209.75,2877.63,3282.43,528.26,521.25,0.01,0000 0000 0000 0000 000002
2017-08-20 10:05:43,-0.02,0.00,0.00,25.29,29.65,32.60,13.91,44.26,1017.60,2022.99,3539.42,3074.31,3534.07,600.42,592.38,0.03,0000 0000 0000 0000 000000
2017-08-20 10:10:44,-0.01,0.00,0.00,25.27,29.65,32.60,13.86,44.66,1017.60,2022.99,3538.07,3074.00,3533.11,600.25,592.34,0.08,0000 0000 0000 0000 000000
2017-08-20 10:15:45,-0.01,0.00,0.00,25.27,29.65,32.62,13.84,44.63,1017.61,2022.98,3537.43,3074.00,3532.64,599.99,592.07,0.13,0000 0000 0000 0000 000000
2017-08-20 10:20:46,0.00,0.00,0.00,25.27,29.66,32.61,13.86,44.94,1017.60,2022.96,3537.02,3073.90,3532.03,600.04,592.11,0.18,0000 0000 0000 0000 000000
2017-08-20 10:25:48,0.00,0.00,0.00,25.28,29.67,32.61,13.84,44.85,1017.60,2022.94,3536.78,3073.53,3531.89,599.84,591.92,0.23,0000 0000 0000 0000 000000
2017-08-20 10:30:49,0.01,0.00,0.00,25.28,29.67,32.64,13.85,44.65,1017.59,2022.89,3536.10,3073.19,3531.25,600.06,592.13,0.28,0000 0000 0000 0000 000000
2017-08-20 10:35:50,0.01,0.00,0.00,25.28,29.67,32.62,13.80,44.88,1017.59,2022.91,3535.99,3073.05,3531.01,599.80,591.86,0.33,0000 0000 0000 0000 000000
2017-08-20 10:40:52,0.02,0.00,0.00,25.27,29.67,32.63,13.89,44.82,1017.59,2022.90,3535.27,3073.00,3530.81,600.22,592.26,0.38,0000 0000 0000 0000 000000
2017-08-20 10:45:52,0.01,0.00,0.00,25.27,29.68,32.62,13.79,44.83,1017.59,2022.90,3534.91,3072.96,3530.12,599.85,591.92,0.43,0000 0000 0000 0000 000000
2017-08-20 10:50:54,0.01,0.00,0.00,25.27,29.69,32.63,13.83,44.81,1017.60,2022.86,3534.13,3072.70,3530.00,599.91,592.08,0.48,0000 0000 0000 0000 000000
2017-08-20 10:55:55,0.02,0.01,0.00,25.26,29.70,32.61,13.82,44.71,1017.59,2022.94,3533.99,3072.27,3529.97,600.04,591.99,0.53,0000 0000 0000 0000 000000
2017-08-20 11:00:56,0.01,0.01,0.00,25.25,29.70,32.61,13.87,44.79,1017.59,2022.86,3533.50,3072.05,3529.30,599.96,592.07,0.58,0000 0000 0000 0000 000000
2017-08-20 11:05:58,-0.00,0.01,0.00,25.26,29.70,32.63,13.85,44.77,1017.59,2022.72,3533.01,3072.00,3529.01,599.86,591.85,0.63,0000 0000 0000 0000 000000
2017-08-20 11:10:59,-0.01,0.01,0.00,25.26,29.70,32.58,13.86,44.61,1017.59,2022.68,3532.93,3072.00,3529.00,600.42,592.49,0.68,0000 0000 0000 0000 000000
2017-08-20 11:16:00,0.03,0.01,0.00,25.25,29.70,32.59,13.86,44.42,1017.59,2022.84,3532.40,3071.99,3528.93,600.34,592.34,0.73,0000 0000 0000 0000 000000
2017-08-20 11:21:02,-0.00,0.01,0.00,25.25,29.70,32.59,13.84,44.60,1017.59,2022.81,3532.02,3071.96,3528.40,600.31,592.35,0.78,0000 0000 0000 0000 000000
2017-08-20 11:26:04,-0.01,0.01,0.00,25.23,29.70,32.62,13.81,44.73,1017.59,2022.55,3532.00,3071.79,3528.05,599.87,591.92,0.83,0000 0000 0000 0000 000000
2017-08-20 11:31:05,0.02,0.01,0.00,25.22,29.70,32.61,13.85,44.80,1017.57,2022.69,3531.98,3071.65,3528.01,599.75,591.92,0.88,0000 0000 0000 0000 000000
2017-08-20 11:36:06,0.01,0.01,0.00,25.22,29.70,32.59,13.87,44.57,1017.53,2022.64,3531.68,3071.29,3528.00,600.27,592.48,0.94,0000 0000 0000 0000 000000
2017-08-20 11:41:07,0.02,0.01,0.00,25.22,29.71,32.59,13.76,44.63,1017.58,2022.59,3531.11,3071.07,3528.00,599.63,591.76,0.99,0000 0000 0000 0000 000000
2017-08-20 11:46:09,-0.01,0.01,0.00,25.22,29.71,32.60,13.83,44.63,1017.54,2022.60,3531.01,3071.03,3527.92,600.16,592.30,1.04,0000 0000 0000 0000 000000
2017-08-20 11:51:10,0.02,0.01,0.00,25.22,29.71,32.56,13.83,44.38,1017.50,2022.66,3530.99,3071.00,3527.65,600.01,592.08,1.09,0000 0000 0000 0000 000000
2017-08-20 11:56:12,0.02,0.01,0.00,25.21,29.71,32.59,13.81,44.27,1017.28,2022.89,3530.83,3071.00,3527.25,600.01,591.97,1.14,0000 0000 0000 0000 000000
2017-08-20 12:01:13,0.01,0.01,0.00,25.20,29.71,32.58,13.78,44.42,1017.15,2022.95,3530.25,3071.00,3527.03,599.89,591.85,1.19,0000 0000 0000 0000 000000
2017-08-20 12:06:14,0.00,0.01,0.00,25.20,29.71,32.58,13.85,44.39,1017.28,2022.97,3530.03,3071.00,3527.01,599.74,591.85,1.24,0000 0000 0000 0000 000000
2017-08-20 12:11:15,0.00,0.01,0.00,25.20,29.71,32.61,13.92,44.39,1017.14,2022.95,3530.00,3071.00,3527.00,600.02,592.01,1.29,0000 0000 0000 0000 000000
2017-08-20 12:16:16,-0.00,0.01,0.00,25.18,29.71,32.58,13.83,44.34,1017.16,2022.96,3529.99,3070.99,3526.99,599.72,591.77,1.34,0000 0000 0000 0000 000000
2017-08-20 12:21:17,0.00,0.01,0.00,25.17,29.71,32.54,13.85,44.56,1017.12,2022.93,3529.82,3070.97,3526.90,599.79,591.86,1.39,0000 0000 0000 0000 000000
2017-08-20 12:26:18,0.01,0.01,0.00,25.16,29.70,32.58,13.85,44.39,1017.11,2022.87,3529.30,3070.89,3526.51,600.18,592.22,1.44,0000 0000 0000 0000 000000
2017-08-20 12:31:20,0.01,0.01,0.00,25.15,29.70,32.55,13.83,44.49,1017.11,2022.91,3529.08,3070.85,3526.23,599.78,591.78,1.49,0000 0000 0000 0000 000000
2017-08-20 12:36:21,0.01,0.01,0.00,25.16,29.70,32.55,13.75,44.29,1017.11,2022.92,3529.04,3070.78,3526.07,599.67,591.65,1.54,0000 0000 0000 0000 000000
2017-08-20 12:41:22,-0.01,0.01,0.00,25.15,29.70,32.56,13.83,44.38,1017.11,2022.92,3529.02,3070.80,3526.05,600.06,592.10,1.59,0000 0000 0000 0000 000000
2017-08-20 12:46:23,0.00,0.01,0.00,25.14,29.70,32.52,13.79,44.38,1017.11,2022.93,3529.01,3070.81,3526.03,599.82,591.98,1.64,0000 0000 0000 0000 000000
2017-08-20 12:51:25,0.00,0.01,0.00,25.13,29.70,32.50,13.82,44.33,1017.11,2022.95,3529.00,3070.71,3526.00,599.62,591.76,1.69,0000 0000 0000 0000 000000
2017-08-20 12:56:26,0.00,0.01,0.00,25.12,29.70,32.49,13.86,44.54,1017.11,2022.97,3529.00,3070.84,3526.01,599.94,592.02,1.74,0000 0000 0000 0000 000000